Satellite: PHARMSAT
Catalog number: 35002
Epoch time:      12068.90092960
Element set:     819
Inclination:      040.4663 deg
RA of node:       340.7508 deg
Eccentricity:    0.0001453
Arg of perigee:   020.2273 deg
Mean anomaly:     339.8609 deg
Mean motion:   15.67394012 rev/day
Decay rate:     7.3232e-04 rev/day^2
Epoch rev:           15850
Checksum:              278

Satellite: METEOR-M
Catalog number: 35865
Epoch time:      12068.73100192
Element set:     212
Inclination:      098.6672 deg
RA of node:       124.8850 deg
Eccentricity:    0.0002248
Arg of perigee:   005.1434 deg
Mean anomaly:     354.9740 deg
Mean motion:   14.21855286 rev/day
Decay rate:      -4.31e-06 rev/day^2
Epoch rev:           12832
Checksum:              280

Satellite: RS-38
Catalog number: 35869
Epoch time:      12068.76665834
Element set:     220
Inclination:      098.6633 deg
RA of node:       124.9313 deg
Eccentricity:    0.0004297
Arg of perigee:   354.0562 deg
Mean anomaly:     006.0560 deg
Mean motion:   14.22057675 rev/day
Decay rate:       1.49e-06 rev/day^2
Epoch rev:           12834
Checksum:              311

Satellite: JUGNU
Catalog number: 37839
Epoch time:      12068.75401376
Element set:     102
Inclination:      019.9556 deg
RA of node:       246.6808 deg
Eccentricity:    0.0018700
Arg of perigee:   197.7906 deg
Mean anomaly:     162.1847 deg
Mean motion:   14.12029162 rev/day
Decay rate:       6.20e-06 rev/day^2
Epoch rev:            2103
Checksum:              287

Satellite: SRMSAT
Catalog number: 37841
Epoch time:      12068.74279691
Element set:     104
Inclination:      019.9684 deg
RA of node:       249.6253 deg
Eccentricity:    0.0012256
Arg of perigee:   168.5354 deg
Mean anomaly:     191.5314 deg
Mean motion:   14.10120593 rev/day
Decay rate:       2.64e-06 rev/day^2
Epoch rev:            2099
Checksum:              297

Satellite: RAX-2
Catalog number: 37853
Epoch time:      12068.89871544
Element set:     116
Inclination:      101.7133 deg
RA of node:       063.4828 deg
Eccentricity:    0.0250172
Arg of perigee:   276.5609 deg
Mean anomaly:     080.7172 deg
Mean motion:   14.79102565 rev/day
Decay rate:      5.545e-05 rev/day^2
Epoch rev:            1956
Checksum:              312

Satellite: AUBIESAT
Catalog number: 37854
Epoch time:      12068.87707347
Element set:     119
Inclination:      101.7181 deg
RA of node:       063.5791 deg
Eccentricity:    0.0250991
Arg of perigee:   275.9347 deg
Mean anomaly:     081.3328 deg
Mean motion:   14.79424191 rev/day
Decay rate:      5.987e-05 rev/day^2
Epoch rev:            1955
Checksum:              335

Satellite: HRBE
Catalog number: 37855
Epoch time:      12067.93544331
Element set:    0128
Inclination:      101.7203 deg
RA of node:       062.1959 deg
Eccentricity:    0.0251848
Arg of perigee:   278.9442 deg
Mean anomaly:     078.3333 deg
Mean motion:   14.79305558 rev/day
Decay rate:      5.321e-05 rev/day^2
Epoch rev:           01941
Checksum:              305

Satellite: RS-39
Catalog number: 38051
Epoch time:      12068.84275463
Element set:     132
Inclination:      051.6467 deg
RA of node:       277.3923 deg
Eccentricity:    0.0011501
Arg of perigee:   039.1399 deg
Mean anomaly:     148.8731 deg
Mean motion:   15.22629941 rev/day
Decay rate:      9.876e-05 rev/day^2
Epoch rev:             667
Checksum:              326

/EX
_______________________________________________
Via the Keps mailing list courtesy of AMSAT-NA
http://amsat.org/mailman/listinfo/keps

--- ViaMAIL!/WC v1.60d
 * Origin: Chowdanet (401-724-4410) telnet://chowdanet.com  (1:323/120)